TIANLIAN 1-05

Last updated on Thu Nov 21 2024 00:02:44 GMT+0000 (Coordinated Universal Time)

1 49011U 21063A 24325.24910571 .00000109 00000+0 00000+0 0 9990 2 49011 0.1255 59.8802 0005259 186.5317 279.8112 1.00271626 12327
UTC large
Height (km)
Speed (km/s)
/
Latitude / Longitude
Inclination (degrees)
Orbital Period (minutes)
Azimuth
Elevation
Range (km)
Doppler Factor

Next 0 passes for location: London (51.5072 / 0.1276)

Sorry there are no passes over London.